Tracking 19709 objects as of 18-Jun-2019
HD Live streaming from Space Station
objects crossing your sky now

NSTAR A

Track NSTAR A now!
NSTAR A is classified as:


NORAD ID: 23651
Int'l Code: 1995-044A
Perigee: 36,028.6 km
Apogee: 36,206.6 km
Inclination: 10.2 °
Period: 1,452.7 minutes
Semi major axis: 42488 km
RCS: 15.8489 m2 (large)
Launch date: August 29, 1995
Source: Japan (JPN)
Launch site: FRENCH GUIANA (FRGUI)

Voice and TV broadcast to Japan and neighboring region.
aabbcc
Your satellite tracking list
Your tracking list is empty




NASA's NSSDC Master Catalog

Two Line Element Set (TLE):
1 23651U 95044A   19169.08282687 -.00000166  00000-0  00000+0 0  9999
2 23651  10.2246  38.1197 0020946 324.2759 224.4865  0.99127510 86623
Source of the keplerian elements: AFSPC